When you browse on this site, cookies collect data to enhance your experience and personalize the content and advertising you see.
Visit our Privacy Policy to learn more. By continuing to use the site, you agree to this use of cookies and data.
  • en France
  • Liste des pays
  • À 7 jours
  • Température de l'eau
  • Carte satellitaire
  • Carte météo
  • Widgets météo
  • user-avatar
    Se connecter

    Météo par heure à Lyon

    Ce jour, 24 Juillet, Mercredi

    Heure Température Précipitation Vent Pression Humidité
    00:00 +27°C° 0 mm 2 m/s 748 mmHg 56%
    01:00 +27°C° 0 mm 2 m/s 748 mmHg 57%
    02:00 +26°C° 0 mm 2 m/s 748 mmHg 58%
    03:00 +25°C° 0 mm 2 m/s 747 mmHg 59%
    04:00 +26°C° 0 mm 2 m/s 748 mmHg 59%
    05:00 +26°C° 0 mm 1 m/s 748 mmHg 60%
    06:00 +27°C° 0 mm 1 m/s 748 mmHg 60%
    07:00 +29°C° 0 mm 1 m/s 748 mmHg 55%
    08:00 +31°C° 0 mm 1 m/s 748 mmHg 49%
    09:00 +33°C° 0 mm 1 m/s 747 mmHg 44%
    10:00 +35°C° 0 mm 1 m/s 747 mmHg 40%
    11:00 +36°C° 0 mm 1 m/s 747 mmHg 36%
    12:00 +39°C° 0 mm 1 m/s 747 mmHg 32%
    13:00 +39°C° 0 mm 1 m/s 747 mmHg 32%
    14:00 +40°C° 0 mm 1 m/s 746 mmHg 31%
    15:00 +40°C° 0 mm 1 m/s 746 mmHg 30%
    16:00 +39°C° 0 mm 1 m/s 746 mmHg 34%
    17:00 +37°C° 0 mm 1 m/s 746 mmHg 38%
    18:00 +34°C° 0 mm 0 m/s 746 mmHg 43%
    19:00 +34°C° 0 mm 1 m/s 747 mmHg 45%
    20:00 +32°C° 0 mm 1 m/s 747 mmHg 48%
    21:00 +30°C° 0 mm 1 m/s 748 mmHg 50%
    22:00 +29°C° 0 mm 1 m/s 747 mmHg 51%
    23:00 +28°C° 0 mm 1 m/s 747 mmHg 52%

    Demain, 25 Juillet, Jeudi

    Heure Température Précipitation Vent Pression Humidité
    00:00 +27°C° 0 mm 1 m/s 747 mmHg 54%
    01:00 +27°C° 0 mm 1 m/s 747 mmHg 55%
    02:00 +26°C° 0 mm 1 m/s 747 mmHg 56%
    03:00 +25°C° 0 mm 1 m/s 747 mmHg 58%
    04:00 +26°C° 0 mm 1 m/s 747 mmHg 59%
    05:00 +26°C° 0 mm 1 m/s 747 mmHg 60%
    06:00 +26°C° 0 mm 1 m/s 747 mmHg 60%
    07:00 +28°C° 0 mm 2 m/s 747 mmHg 55%
    08:00 +30°C° 0 mm 2 m/s 747 mmHg 50%
    09:00 +32°C° 0 mm 2 m/s 747 mmHg 45%
    10:00 +35°C° 0 mm 2 m/s 746 mmHg 41%
    11:00 +37°C° 0 mm 3 m/s 746 mmHg 37%
    12:00 +39°C° 0 mm 3 m/s 746 mmHg 33%
    13:00 +39°C° 0 mm 3 m/s 745 mmHg 31%
    14:00 +41°C° 0 mm 4 m/s 745 mmHg 30%
    15:00 +41°C° 0 mm 4 m/s 745 mmHg 29%
    16:00 +40°C° 0 mm 4 m/s 745 mmHg 32%
    17:00 +37°C° 0 mm 3 m/s 745 mmHg 35%
    18:00 +36°C° 0 mm 3 m/s 745 mmHg 37%
    19:00 +34°C° 0 mm 3 m/s 745 mmHg 41%
    20:00 +30°C° 0 mm 3 m/s 745 mmHg 45%
    21:00 +28°C° 0 mm 3 m/s 746 mmHg 48%
    22:00 +28°C° 0 mm 3 m/s 746 mmHg 48%
    23:00 +27°C° 0 mm 3 m/s 745 mmHg 49%

    Après-demain, 26 Juillet, Vendredi

    Heure Température Précipitation Vent Pression Humidité
    00:00 +26°C° 0 mm 3 m/s 745 mmHg 49%
    01:00 +26°C° 0 mm 3 m/s 745 mmHg 51%
    02:00 +25°C° 0 mm 3 m/s 745 mmHg 52%
    03:00 +24°C° 0 mm 3 m/s 745 mmHg 54%
    04:00 +24°C° 0 mm 2 m/s 745 mmHg 56%
    05:00 +25°C° 0 mm 2 m/s 744 mmHg 57%
    06:00 +25°C° 0 mm 2 m/s 744 mmHg 58%
    07:00 +27°C° 0 mm 2 m/s 744 mmHg 51%
    08:00 +30°C° 0 mm 2 m/s 744 mmHg 45%
    09:00 +32°C° 0 mm 2 m/s 744 mmHg 38%
    10:00 +35°C° 0 mm 2 m/s 743 mmHg 34%
    11:00 +36°C° 0 mm 3 m/s 743 mmHg 29%
    12:00 +38°C° 0 mm 3 m/s 742 mmHg 25%
    13:00 +38°C° 0 mm 3 m/s 742 mmHg 25%
    14:00 +38°C° 0 mm 3 m/s 741 mmHg 26%
    15:00 +39°C° 0 mm 3 m/s 741 mmHg 26%
    16:00 +37°C° 0 mm 3 m/s 741 mmHg 30%
    17:00 +36°C° 0 mm 3 m/s 741 mmHg 34%
    18:00 +35°C° 0 mm 3 m/s 741 mmHg 39%
    19:00 +33°C° 0.1 mm 3 m/s 741 mmHg 44%
    20:00 +30°C° 0.1 mm 3 m/s 741 mmHg 50%
    21:00 +27°C° 0.1 mm 3 m/s 741 mmHg 55%
    22:00 +26°C° 0.2 mm 2 m/s 741 mmHg 65%
    23:00 +24°C° 0.2 mm 2 m/s 741 mmHg 74%

    27 Juillet, Samedi

    Heure Température Précipitation Vent Pression Humidité
    00:00 +21°C° 0.2 mm 2 m/s 741 mmHg 84%
    01:00 +22°C° 0.3 mm 1 m/s 741 mmHg 86%
    02:00 +21°C° 0.3 mm 1 m/s 741 mmHg 87%
    03:00 +21°C° 0.3 mm 1 m/s 740 mmHg 89%
    04:00 +21°C° 0.4 mm 1 m/s 740 mmHg 88%
    05:00 +22°C° 0.4 mm 1 m/s 740 mmHg 87%
    06:00 +22°C° 0.4 mm 1 m/s 740 mmHg 86%
    07:00 +23°C° 0.3 mm 1 m/s 739 mmHg 83%
    08:00 +24°C° 0.3 mm 1 m/s 739 mmHg 79%
    09:00 +25°C° 0.3 mm 1 m/s 739 mmHg 76%
    10:00 +25°C° 1.4 mm 1 m/s 739 mmHg 74%
    11:00 +26°C° 1.4 mm 2 m/s 739 mmHg 72%
    12:00 +26°C° 1.4 mm 3 m/s 739 mmHg 70%
    13:00 +25°C° 1.7 mm 3 m/s 739 mmHg 71%
    14:00 +25°C° 1.7 mm 4 m/s 739 mmHg 73%
    15:00 +23°C° 1.7 mm 4 m/s 739 mmHg 75%
    16:00 +22°C° 0.1 mm 4 m/s 739 mmHg 75%
    17:00 +21°C° 0.1 mm 4 m/s 740 mmHg 75%
    18:00 +21°C° 0.1 mm 3 m/s 740 mmHg 75%
    19:00 +20°C° 0 mm 3 m/s 740 mmHg 76%
    20:00 +19°C° 0 mm 3 m/s 741 mmHg 77%
    21:00 +19°C° 0 mm 2 m/s 741 mmHg 78%
    22:00 +19°C° 0 mm 2 m/s 741 mmHg 79%
    23:00 +18°C° 0 mm 2 m/s 741 mmHg 80%

    28 Juillet, Dimanche

    Heure Température Précipitation Vent Pression Humidité
    00:00 +18°C° 0 mm 2 m/s 741 mmHg 81%
    01:00 +18°C° 0 mm 2 m/s 741 mmHg 81%
    02:00 +18°C° 0 mm 2 m/s 741 mmHg 82%
    03:00 +18°C° 0 mm 2 m/s 741 mmHg 82%
    04:00 +18°C° 0 mm 2 m/s 741 mmHg 81%
    05:00 +18°C° 0 mm 2 m/s 741 mmHg 81%
    06:00 +18°C° 0 mm 2 m/s 742 mmHg 80%
    07:00 +18°C° 0 mm 3 m/s 742 mmHg 77%
    08:00 +18°C° 0 mm 3 m/s 742 mmHg 75%
    09:00 +18°C° 0 mm 3 m/s 742 mmHg 72%
    10:00 +19°C° 0 mm 3 m/s 743 mmHg 68%
    11:00 +20°C° 0 mm 3 m/s 743 mmHg 63%
    12:00 +21°C° 0 mm 3 m/s 743 mmHg 59%
    13:00 +20°C° 0 mm 3 m/s 743 mmHg 61%
    14:00 +20°C° 0 mm 3 m/s 743 mmHg 63%
    15:00 +20°C° 0 mm 3 m/s 743 mmHg 64%
    16:00 +20°C° 0 mm 3 m/s 743 mmHg 66%
    17:00 +19°C° 0 mm 3 m/s 743 mmHg 68%
    18:00 +19°C° 0 mm 2 m/s 744 mmHg 70%
    19:00 +19°C° 0 mm 2 m/s 744 mmHg 71%
    20:00 +18°C° 0 mm 2 m/s 745 mmHg 73%
    21:00 +18°C° 0 mm 2 m/s 745 mmHg 74%
    22:00 +17°C° 0 mm 2 m/s 745 mmHg 77%
    23:00 +17°C° 0 mm 2 m/s 745 mmHg 80%

    29 Juillet, Lundi

    Heure Température Précipitation Vent Pression Humidité
    00:00 +16°C° 0 mm 1 m/s 745 mmHg 83%
    01:00 +16°C° 0 mm 2 m/s 745 mmHg 83%
    02:00 +16°C° 0 mm 2 m/s 745 mmHg 83%
    03:00 +16°C° 0 mm 2 m/s 745 mmHg 82%
    04:00 +17°C° 0 mm 2 m/s 745 mmHg 81%
    05:00 +17°C° 0 mm 2 m/s 745 mmHg 80%
    06:00 +17°C° 0 mm 2 m/s 745 mmHg 80%
    07:00 +18°C° 0 mm 2 m/s 745 mmHg 77%
    08:00 +19°C° 0 mm 2 m/s 745 mmHg 75%
    09:00 +20°C° 0 mm 2 m/s 745 mmHg 73%
    10:00 +21°C° 0 mm 3 m/s 745 mmHg 69%
    11:00 +24°C° 0 mm 3 m/s 745 mmHg 66%
    12:00 +25°C° 0 mm 3 m/s 745 mmHg 63%
    13:00 +25°C° 0 mm 3 m/s 745 mmHg 61%
    14:00 +26°C° 0 mm 3 m/s 745 mmHg 60%
    15:00 +27°C° 0 mm 3 m/s 745 mmHg 59%
    16:00 +26°C° 0 mm 2 m/s 745 mmHg 62%
    17:00 +26°C° 0 mm 2 m/s 745 mmHg 66%
    18:00 +25°C° 0 mm 2 m/s 745 mmHg 69%
    19:00 +24°C° 0 mm 1 m/s 745 mmHg 74%
    20:00 +23°C° 0 mm 1 m/s 746 mmHg 80%
    21:00 +21°C° 0 mm 1 m/s 746 mmHg 85%
    22:00 +21°C° 0 mm 1 m/s 746 mmHg 86%
    23:00 +21°C° 0 mm 1 m/s 746 mmHg 86%
    Voir plus